Home > Weather > Sheffield > Past weeks

Flag for United Kingdom Past Weather in Sheffield, England, United Kingdom — Yesterday and Last 2 Weeks

Now
54 °F

Passing clouds.


Feels Like: 51 °F
Forecast: 51 / 61 °F
Wind: 9 mph from West

Location: Manchester Airport

Current Time: Jun 26, 2016 at 5:38:17 AM

Latest Report: Jun 26, 2016 at 4:50 AM


Visibility: 2 mi

Pressure: 30.04 "Hg

Humidity: 94%

Dew Point: 52 °F

Location of SheffieldLocation

Past Weather in Sheffield — Graph

°F

Sheffield Temperature Yesterday

Maximum temperature yesterday: 64 °F (at 4:20 PM)
Minimum temperature yesterday: 52 °F (at 1:50 AM)
Average temperature yesterday: 57 °F

High & Low Weather Summary for the Past Weeks

 TemperatureHumidityPressure
High72 °F (Jun 23, 3:50 PM)100% (Jun 11, 9:50 PM)30.21 "Hg (Jun 11, 9:50 PM)
Low50 °F (Jun 19, 12:20 AM)47% (Jun 23, 3:50 PM)29.33 "Hg (Jun 14, 5:20 PM)
Average59 °F82%29.83 "Hg
* Reported Jun 11 4:20 AM — Jun 26 4:20 AM, Sheffield, Weather by CustomWeather, © 2016

Note: Actual official high and low records may vary slightly from our data, if they occured in-between our weather recording intervals... More about our weather records

Advertising

Sheffield Weather History for the Previous 24 Hours

Scroll right to see more
 ConditionsComfort  
Time TempWeatherWind HumidityBarometerVisibility
4:20 AM
Sun, Jun 26
54 °FPassing clouds.9 mph94%30.04 "Hg2 mi
3:50 AM54 °FMostly cloudy.13 mph94%30.04 "Hg4 mi
3:20 AM55 °FPartly cloudy.10 mph88%30.04 "HgN/A
2:50 AM57 °FOvercast.7 mph82%30.04 "HgN/A
2:20 AM57 °FMostly cloudy.7 mph82%30.04 "HgN/A
1:50 AM57 °FMostly cloudy.7 mph88%30.04 "HgN/A
1:20 AM57 °FPartly cloudy.8 mph88%30.04 "HgN/A
12:50 AM57 °FOvercast.9 mph82%30.04 "HgN/A
12:20 AM57 °FMostly cloudy.12 mph88%30.04 "HgN/A
11:50 PM
Sat, Jun 25
57 °FMostly cloudy.8 mph88%30.04 "HgN/A
11:20 PM57 °FPartly cloudy.10 mph88%30.04 "HgN/A
10:50 PM57 °FPartly cloudy.9 mph88%30.04 "HgN/A
10:20 PM57 °FScattered showers. Partly sunny.9 mph88%30.04 "Hg5 mi
9:50 PM57 °FScattered showers. Scattered clouds.9 mph88%30.04 "HgN/A
9:20 PM57 °FSprinkles. Partly sunny.13 mph88%30.04 "HgN/A
8:50 PM57 °FScattered showers. Partly sunny.8 mph88%30.04 "HgN/A
8:20 PM59 °FScattered showers. Scattered clouds.10 mph82%30.04 "HgN/A
7:50 PM59 °FBroken clouds.10 mph77%30.04 "HgN/A
7:20 PM59 °FPartly sunny.12 mph77%30.04 "HgN/A
6:50 PM59 °FScattered clouds.12 mph77%30.04 "HgN/A
6:20 PM61 °FScattered clouds.14 mph72%30.04 "HgN/A
5:50 PM59 °FScattered clouds.14 mph77%30.04 "HgN/A
5:20 PM63 °FScattered clouds.14 mph68%30.04 "HgN/A
4:50 PM63 °FScattered clouds.12 mph68%30.04 "HgN/A
4:20 PM64 °FScattered clouds.12 mph60%30.04 "HgN/A
3:50 PM63 °FScattered clouds.13 mph64%30.04 "HgN/A
3:20 PM63 °FPassing clouds.14 mph68%30.01 "HgN/A
2:50 PM63 °FScattered clouds.14 mph68%30.01 "HgN/A
2:20 PM63 °FScattered showers. Scattered clouds.14 mph73%30.01 "HgN/A
1:50 PM59 °FScattered showers. Scattered clouds.8 mph77%30.01 "HgN/A
1:20 PM63 °FScattered showers. Passing clouds.10 mph77%30.01 "HgN/A
12:50 PM57 °FPassing clouds.5 mph82%30.04 "HgN/A
12:20 PM57 °FRain showers. Passing clouds.13 mph88%30.04 "HgN/A
11:50 AM57 °FRain showers. Passing clouds.10 mph77%30.04 "HgN/A
11:20 AM59 °FRain showers. Scattered clouds.8 mph82%30.04 "HgN/A
10:50 AM57 °FSprinkles. Scattered clouds.10 mph82%30.04 "HgN/A
10:20 AM57 °FSprinkles. Scattered clouds.3 mph82%30.04 "Hg4 mi
9:50 AM59 °FSprinkles. Passing clouds.5 mph77%30.04 "HgN/A
9:20 AM59 °FSprinkles. Passing clouds.5 mph77%30.04 "HgN/A
8:50 AM57 °FPassing clouds.5 mph82%30.04 "HgN/A
8:20 AM57 °FPassing clouds.5 mph77%30.04 "HgN/A
7:50 AM55 °FPassing clouds.5 mph88%30.01 "HgN/A
7:20 AM55 °FPassing clouds.3 mph88%30.01 "HgN/A
6:50 AM54 °FPassing clouds.5 mph88%30.01 "HgN/A
6:20 AM54 °FPassing clouds.3 mph88%30.01 "HgN/A
5:50 AM52 °FBroken clouds.3 mph94%30.01 "HgN/A
5:20 AM52 °FMostly cloudy.5 mph94%30.01 "HgN/A
Weather by CustomWeather, © 2016

See weather overviewHow to use our weather pages